• In Romania
  • List of Countries
  • For 7 days
  • Water Temperature
  • Satellite Maps
  • Weather Map
  • Weather Widgets
  • user-avatar
    Login

    Hourly Weather Roschinskiy

    Today, 21 August, Tuesday

    Time Temperature Precipitation Wind Pressure Humidity
    00:00 +17°C° 0 mm 2 mps 750 mmHg 64%
    01:00 +17°C° 0 mm 3 mps 750 mmHg 66%
    02:00 +17°C° 0 mm 3 mps 750 mmHg 69%
    03:00 +17°C° 0 mm 3 mps 750 mmHg 69%
    04:00 +17°C° 0.1 mm 3 mps 750 mmHg 71%
    05:00 +18°C° 0.1 mm 3 mps 750 mmHg 72%
    06:00 +18°C° 0.1 mm 3 mps 750 mmHg 74%
    07:00 +20°C° 0 mm 3 mps 750 mmHg 68%
    08:00 +22°C° 0 mm 4 mps 750 mmHg 62%
    09:00 +26°C° 0 mm 4 mps 750 mmHg 54%
    10:00 +27°C° 0 mm 5 mps 750 mmHg 50%
    11:00 +28°C° 0 mm 5 mps 749 mmHg 45%
    12:00 +29°C° 0 mm 6 mps 749 mmHg 41%
    13:00 +29°C° 0 mm 6 mps 749 mmHg 39%
    14:00 +29°C° 0 mm 6 mps 749 mmHg 38%
    15:00 +29°C° 0 mm 6 mps 748 mmHg 37%
    16:00 +28°C° 0 mm 5 mps 748 mmHg 41%
    17:00 +27°C° 0 mm 4 mps 748 mmHg 46%
    18:00 +25°C° 0 mm 3 mps 748 mmHg 50%
    19:00 +24°C° 0 mm 3 mps 748 mmHg 52%
    20:00 +22°C° 0 mm 3 mps 748 mmHg 54%
    21:00 +20°C° 0 mm 3 mps 748 mmHg 57%
    22:00 +20°C° 0 mm 3 mps 748 mmHg 57%
    23:00 +19°C° 0 mm 3 mps 747 mmHg 57%

    Tomorrow, 22 August, Wednesday

    Time Temperature Precipitation Wind Pressure Humidity
    00:00 +19°C° 0 mm 3 mps 747 mmHg 58%
    01:00 +18°C° 0 mm 3 mps 747 mmHg 58%
    02:00 +18°C° 0 mm 3 mps 747 mmHg 58%
    03:00 +18°C° 0 mm 4 mps 747 mmHg 58%
    04:00 +18°C° 0 mm 4 mps 746 mmHg 57%
    05:00 +18°C° 0 mm 4 mps 746 mmHg 56%
    06:00 +18°C° 0 mm 4 mps 746 mmHg 56%
    07:00 +20°C° 0 mm 5 mps 746 mmHg 49%
    08:00 +22°C° 0 mm 6 mps 745 mmHg 42%
    09:00 +24°C° 0 mm 7 mps 745 mmHg 35%
    10:00 +26°C° 0 mm 7 mps 745 mmHg 36%
    11:00 +26°C° 0 mm 7 mps 745 mmHg 37%
    12:00 +26°C° 0 mm 7 mps 745 mmHg 38%
    13:00 +23°C° 0.3 mm 7 mps 745 mmHg 50%
    14:00 +21°C° 0.3 mm 6 mps 745 mmHg 62%
    15:00 +17°C° 0.3 mm 5 mps 745 mmHg 74%
    16:00 +18°C° 0.3 mm 4 mps 745 mmHg 79%
    17:00 +17°C° 0.3 mm 4 mps 746 mmHg 83%
    18:00 +17°C° 0.3 mm 3 mps 746 mmHg 87%
    19:00 +16°C° 0 mm 3 mps 746 mmHg 88%
    20:00 +14°C° 0 mm 3 mps 747 mmHg 89%
    21:00 +14°C° 0 mm 3 mps 747 mmHg 89%
    22:00 +13°C° 0 mm 3 mps 747 mmHg 89%
    23:00 +13°C° 0 mm 3 mps 747 mmHg 89%

    Day after tomorrow, 23 August, Thursday

    Time Temperature Precipitation Wind Pressure Humidity
    00:00 +12°C° 0 mm 3 mps 748 mmHg 89%
    01:00 +12°C° 0 mm 3 mps 748 mmHg 90%
    02:00 +11°C° 0 mm 3 mps 748 mmHg 92%
    03:00 +11°C° 0 mm 4 mps 749 mmHg 93%
    04:00 +11°C° 0 mm 4 mps 749 mmHg 91%
    05:00 +11°C° 0 mm 4 mps 750 mmHg 89%
    06:00 +11°C° 0 mm 4 mps 750 mmHg 88%
    07:00 +13°C° 0 mm 4 mps 750 mmHg 80%
    08:00 +14°C° 0 mm 5 mps 751 mmHg 73%
    09:00 +16°C° 0 mm 5 mps 751 mmHg 65%
    10:00 +16°C° 0 mm 5 mps 751 mmHg 61%
    11:00 +17°C° 0 mm 5 mps 751 mmHg 56%
    12:00 +19°C° 0 mm 6 mps 752 mmHg 52%
    13:00 +19°C° 0 mm 6 mps 752 mmHg 50%
    14:00 +19°C° 0 mm 6 mps 752 mmHg 49%
    15:00 +20°C° 0 mm 6 mps 752 mmHg 47%
    16:00 +19°C° 0 mm 5 mps 752 mmHg 51%
    17:00 +17°C° 0 mm 4 mps 752 mmHg 54%
    18:00 +15°C° 0 mm 4 mps 753 mmHg 57%
    19:00 +14°C° 0 mm 3 mps 753 mmHg 60%
    20:00 +13°C° 0 mm 3 mps 753 mmHg 63%
    21:00 +12°C° 0 mm 2 mps 754 mmHg 66%
    22:00 +12°C° 0 mm 2 mps 754 mmHg 67%
    23:00 +12°C° 0 mm 2 mps 754 mmHg 68%

    24 August, Friday

    Time Temperature Precipitation Wind Pressure Humidity
    00:00 +10°C° 0 mm 2 mps 754 mmHg 69%
    01:00 +10°C° 0 mm 2 mps 754 mmHg 71%
    02:00 +10°C° 0 mm 2 mps 754 mmHg 72%
    03:00 +10°C° 0 mm 2 mps 754 mmHg 73%
    04:00 +10°C° 0 mm 3 mps 755 mmHg 73%
    05:00 +11°C° 0 mm 3 mps 755 mmHg 74%
    06:00 +11°C° 0 mm 3 mps 755 mmHg 74%
    07:00 +13°C° 0 mm 3 mps 755 mmHg 67%
    08:00 +15°C° 0 mm 4 mps 754 mmHg 60%
    09:00 +18°C° 0 mm 4 mps 754 mmHg 53%
    10:00 +19°C° 0 mm 5 mps 754 mmHg 50%
    11:00 +20°C° 0 mm 5 mps 754 mmHg 47%
    12:00 +22°C° 0 mm 6 mps 753 mmHg 43%
    13:00 +22°C° 0 mm 6 mps 753 mmHg 43%
    14:00 +22°C° 0 mm 6 mps 753 mmHg 43%
    15:00 +22°C° 0 mm 6 mps 753 mmHg 43%
    16:00 +21°C° 0 mm 5 mps 753 mmHg 48%
    17:00 +20°C° 0 mm 4 mps 752 mmHg 53%
    18:00 +19°C° 0 mm 3 mps 752 mmHg 58%
    19:00 +18°C° 0 mm 3 mps 752 mmHg 62%
    20:00 +17°C° 0 mm 3 mps 753 mmHg 65%
    21:00 +16°C° 0 mm 3 mps 753 mmHg 68%
    22:00 +14°C° 0 mm 3 mps 753 mmHg 70%
    23:00 +14°C° 0 mm 3 mps 753 mmHg 72%

    25 August, Saturday

    Time Temperature Precipitation Wind Pressure Humidity
    00:00 +14°C° 0 mm 3 mps 753 mmHg 74%
    01:00 +13°C° 0 mm 3 mps 753 mmHg 77%
    02:00 +14°C° 0 mm 2 mps 753 mmHg 80%
    03:00 +14°C° 0 mm 2 mps 753 mmHg 83%
    04:00 +14°C° 0 mm 2 mps 753 mmHg 83%
    05:00 +14°C° 0 mm 2 mps 753 mmHg 83%
    06:00 +15°C° 0 mm 2 mps 754 mmHg 84%
    07:00 +16°C° 0 mm 2 mps 754 mmHg 78%
    08:00 +18°C° 0 mm 2 mps 754 mmHg 73%
    09:00 +20°C° 0 mm 2 mps 754 mmHg 68%
    10:00 +20°C° 0 mm 2 mps 754 mmHg 65%
    11:00 +21°C° 0 mm 2 mps 754 mmHg 62%
    12:00 +22°C° 0 mm 3 mps 754 mmHg 60%
    13:00 +22°C° 0 mm 3 mps 754 mmHg 58%
    14:00 +24°C° 0 mm 3 mps 754 mmHg 57%
    15:00 +24°C° 0 mm 3 mps 754 mmHg 55%
    16:00 +22°C° 0 mm 3 mps 754 mmHg 60%
    17:00 +21°C° 0 mm 2 mps 754 mmHg 64%
    18:00 +20°C° 0 mm 2 mps 754 mmHg 69%
    19:00 +19°C° 0 mm 2 mps 754 mmHg 73%
    20:00 +17°C° 0 mm 2 mps 755 mmHg 78%
    21:00 +16°C° 0 mm 2 mps 755 mmHg 83%
    22:00 +15°C° 0 mm 2 mps 755 mmHg 84%
    23:00 +15°C° 0 mm 2 mps 755 mmHg 85%

    26 August, Sunday

    Time Temperature Precipitation Wind Pressure Humidity
    00:00 +14°C° 0 mm 1 mps 755 mmHg 87%
    01:00 +14°C° 0 mm 1 mps 756 mmHg 87%
    02:00 +13°C° 0 mm 1 mps 756 mmHg 87%
    03:00 +13°C° 0 mm 1 mps 756 mmHg 87%
    04:00 +13°C° 0 mm 1 mps 756 mmHg 85%
    05:00 +14°C° 0 mm 1 mps 757 mmHg 83%
    06:00 +14°C° 0 mm 1 mps 757 mmHg 82%
    07:00 +16°C° 0 mm 1 mps 757 mmHg 74%
    08:00 +18°C° 0 mm 2 mps 757 mmHg 67%
    09:00 +20°C° 0 mm 2 mps 757 mmHg 59%
    10:00 +21°C° 0 mm 2 mps 757 mmHg 54%
    11:00 +23°C° 0 mm 2 mps 757 mmHg 50%
    12:00 +24°C° 0 mm 2 mps 757 mmHg 45%
    13:00 +25°C° 0 mm 2 mps 756 mmHg 44%
    14:00 +25°C° 0 mm 2 mps 756 mmHg 42%
    15:00 +25°C° 0 mm 2 mps 756 mmHg 41%
    16:00 +24°C° 0 mm 2 mps 756 mmHg 46%
    17:00 +23°C° 0 mm 2 mps 755 mmHg 51%
    18:00 +21°C° 0 mm 2 mps 755 mmHg 57%
    19:00 +20°C° 0 mm 2 mps 755 mmHg 61%
    20:00 +18°C° 0 mm 2 mps 756 mmHg 65%
    21:00 +17°C° 0 mm 2 mps 756 mmHg 69%
    22:00 +16°C° 0 mm 2 mps 756 mmHg 72%
    23:00 +16°C° 0 mm 1 mps 756 mmHg 74%
    Show more